Terminal Aerodrome Forecast
Issued by NWS Cleveland, OH

Home | Current Version | Previous Version | Graphics & Text | Print | Product List | Glossary On
Versions: 1 2 3 4 5 6 7 8 9 10 11 12 13 14 15 16 17 18 19 20 21 22
000
FTUS41 KCLE 242335
TAFMFD
TAF
KMFD 242335Z 2500/2524 18010KT P6SM SCT040 OVC100
      TEMPO 2501/2503 3SM -TSRA OVC025CB
     FM250300 22006KT P6SM BKN035 BKN100
     FM250900 22006KT 4SM BR SCT015
     FM251200 22010KT P6SM BKN015
     FM251600 22010G20KT P6SM BKN040
     FM252000 22010G30KT 3SM TSRA OVC025CB
     FM252200 24008KT P6SM SCT025 BKN080=

USA.gov is the U.S. government's official web portal to all federal, state and local government web resources and services.